Wind_Speed
12 13 16 17 17 16 16 16 18 19 17 15 15 12 8 7 8 10 13 11 9 10 12 15 16 19 27 27 26 28 27 27 27 26 26 26 28 28 29 30 31 31 32 32 33 33 33 33 32 32 31 31 30 29 29 29 28 27 27 26 25 25 26 26 26 28 30 32 35 38 37 33 34 37 36 40 46 37 25 22 18 23 28 29 30 28
11 13 15 15 14 11 12 14 15 17 19 18 20 21 15 11 9 10 12 10 9 13 13 12 13 19 27 28 27 28 28 28 30 31 30 29 28 27 27 28 30 30 30 31 31 32 33 33 34 34 33 33 32 31 30 29 29 27 26 25 24 24 23 22 21 21 24 26 28 29 28 24 24 31 35 37 42 41 34 29 22 21 23 25 31 34
10 12 12 10 12 12 13 15 15 15 17 18 18 20 20 18 15 15 15 13 13 15 15 13 13 19 28 30 28 28 28 28 28 29 31 30 29 28 26 27 28 29 29 30 30 29 30 30 30 31 31 31 31 31 30 29 28 27 26 24 23 24 23 21 19 18 21 22 23 24 23 21 17 18 24 29 35 37 35 34 31 30 29 25 25 31
7 8 8 11 14 15 17 18 17 16 16 17 17 16 18 17 15 16 18 16 17 18 18 17 17 21 28 29 29 29 28 28 28 28 29 29 30 29 27 27 26 26 27 28 29 29 29 28 28 28 28 28 29 29 29 28 28 27 25 24 24 24 24 23 21 19 20 22 21 21 21 24 23 20 18 19 23 28 30 33 35 35 36 34 30 27
8 8 10 13 15 17 18 17 17 18 17 17 18 18 19 15 13 16 16 13 14 15 17 17 17 23 30 30 29 29 28 29 31 31 31 31 31 31 30 30 28 27 26 26 28 28 28 28 28 28 28 27 27 28 28 28 27 27 25 24 24 24 24 25 25 22 21 22 22 21 20 22 25 25 23 20 20 22 20 23 30 33 35 36 35 34
13 15 14 12 13 14 14 12 10 12 15 14 12 15 20 17 15 18 16 11 9 11 14 13 10 15 25 29 29 30 31 32 34 34 35 34 33 33 33 33 32 32 31 30 30 30 30 29 29 28 28 27 27 27 28 28 27 27 25 24 24 24 24 24 26 25 22 22 22 23 22 21 23 24 25 24 23 23 20 19 23 27 29 33 34 34
13 18 18 15 14 13 13 11 7 8 11 9 8 11 14 15 17 18 16 13 10 10 11 12 12 11 14 21 27 31 34 35 36 36 36 36 35 35 35 35 35 34 34 34 34 34 33 32 31 30 28 28 27 27 28 28 28 27 26 25 24 24 24 24 25 26 25 23 22 23 24 23 23 23 25 27 27 26 24 22 23 23 23 27 32 32
13 16 15 16 17 16 17 16 13 12 11 9 11 12 10 10 15 17 15 14 14 13 11 13 18 15 13 17 21 26 31 34 36 37 37 37 37 37 37 36 36 36 35 34 34 34 34 33 33 32 31 29 28 28 28 28 28 28 27 26 25 24 24 24 24 25 26 26 25 24 25 25 26 25 24 25 27 28 29 28 27 26 25 25 28 31
9 10 9 10 11 11 15 16 15 14 13 12 13 12 10 8 11 14 13 14 14 13 14 17 19 13 13 18 19 20 25 29 32 34 35 36 36 37 38 37 37 37 36 35 34 33 33 33 32 32 32 31 30 29 29 29 29 29 28 27 26 25 25 25 25 25 26 27 27 26 26 26 27 27 27 27 26 27 28 30 30 30 30 29 28 29
7 7 6 6 6 8 12 14 15 16 15 16 16 14 12 10 11 11 10 13 12 10 15 21 20 11 9 15 19 19 22 26 29 32 32 32 32 33 35 36 37 37 36 36 35 34 33 33 32 32 33 32 32 31 30 30 30 30 30 29 27 26 26 26 26 25 25 26 27 27 28 28 28 28 29 29 29 29 28 29 30 31 30 31 31 30
10 10 9 7 8 10 12 11 12 15 16 17 19 17 14 13 12 12 12 13 8 9 20 23 20 15 7 9 17 21 23 26 28 30 30 29 29 30 32 33 34 35 36 36 35 35 34 33 33 33 33 33 33 33 32 32 32 31 31 30 29 28 28 28 28 27 27 27 27 28 28 29 29 30 30 30 30 30 31 31 31 32 31 32 32 32
10 11 11 10 11 12 12 12 10 12 14 15 15 11 9 9 7 8 11 11 5 8 19 20 20 19 11 8 15 20 23 26 28 30 28 27 27 28 30 31 32 33 34 35 35 35 35 34 34 34 33 34 34 34 34 33 33 33 33 32 31 30 30 30 30 30 30 30 29 29 29 29 30 30 30 30 30 30 31 32 32 32 33 33 33 33
8 9 10 10 11 12 12 10 7 7 8 8 9 6 3 3 4 3 4 6 6 9 11 11 17 19 15 18 22 21 22 24 25 27 26 25 25 27 29 29 30 32 32 34 34 34 35 34 34 34 34 34 34 35 34 34 34 34 34 34 33 32 32 31 31 31 31 31 31 31 31 30 30 30 30 30 30 30 30 31 32 33 33 34 34 34
6 7 8 9 9 9 9 7 5 4 3 3 5 7 5 2 1 3 4 3 5 11 13 12 14 11 11 20 26 24 23 23 22 23 22 22 24 26 28 28 29 31 31 32 33 33 34 34 34 33 33 33 34 34 34 34 34 34 34 34 34 34 33 33 32 32 32 31 31 31 31 31 31 30 30 30 30 30 30 30 31 32 32 33 34 35
4 4 4 5 5 5 5 6 8 7 6 6 6 8 7 5 3 2 2 1 1 3 6 9 10 6 7 13 18 19 20 22 24 25 25 24 25 25 26 27 28 29 30 31 32 32 32 33 33 33 33 32 33 33 34 34 34 34 34 34 34 34 34 34 33 33 33 32 32 32 32 32 32 31 31 31 31 30 30 30 30 31 32 32 34 35
5 4 4 4 5 5 4 4 7 8 7 7 8 8 8 9 8 5 6 7 4 4 2 6 6 8 10 12 16 16 16 20 22 24 27 28 29 29 28 27 27 27 27 28 29 30 31 31 31 31 31 31 31 32 32 33 33 33 33 33 33 34 34 34 34 34 34 33 33 33 33 33 33 33 33 32 32 32 31 31 31 31 31 32 33 34
3 4 5 5 6 6 5 5 6 6 7 7 7 6 7 9 9 8 10 12 8 3 5 9 9 11 12 12 17 19 19 20 20 21 24 26 27 28 28 27 27 26 26 26 27 28 29 29 30 30 30 30 30 30 31 31 32 32 32 33 33 33 34 33 33 34 34 34 34 34 34 34 34 34 34 34 33 33 32 32 31 31 31 32 32 33
4 5 6 7 7 7 7 7 7 7 9 8 6 6 7 7 8 7 5 5 4 3 6 10 12 12 9 9 16 20 21 22 23 23 23 23 24 25 25 26 26 26 26 25 25 26 27 27 28 28 29 29 29 29 29 30 30 31 31 31 32 32 33 33 33 33 33 33 34 34 35 34 34 34 34 34 34 33 33 33 32 32 31 31 32 32
5 4 4 5 6 7 6 7 7 7 9 8 7 8 7 4 4 6 4 1 3 4 4 8 13 9 7 7 11 15 18 21 22 21 22 24 24 23 24 23 23 24 25 25 25 24 25 26 26 27 27 27 27 28 28 28 29 29 30 30 31 31 32 32 32 33 33 33 33 33 34 34 34 34 33 33 33 33 33 33 33 32 32 31 31 32
4 2 3 4 4 5 5 5 6 7 8 8 8 8 7 5 3 4 5 3 2 3 3 6 8 3 4 6 5 8 16 19 19 19 19 21 21 21 22 22 22 22 23 23 23 23 24 24 25 25 25 26 26 26 27 27 27 28 28 29 29 30 30 31 32 32 32 32 32 32 32 33 33 33 33 32 32 31 31 31 32 32 32 32 31 31
4 4 5 4 3 5 5 4 6 8 9 9 9 8 7 8 6 6 10 9 5 3 2 4 3 2 2 4 2 7 15 16 16 17 16 15 15 16 18 20 21 21 22 22 23 23 23 23 24 24 25 25 25 26 26 26 27 27 27 28 28 29 29 30 31 31 31 31 31 31 31 31 32 32 32 32 31 31 30 30 31 31 32 32 31 31
5 7 9 7 5 6 5 7 10 12 12 11 10 8 8 8 5 3 5 7 6 3 2 3 2 1 5 6 4 7 12 14 15 16 16 16 15 16 17 18 20 21 22 22 23 23 23 24 24 24 24 25 25 25 26 26 27 27 27 28 28 28 29 30 30 31 31 31 31 31 31 31 31 31 31 31 31 31 30 30 30 30 31 31 32 32
5 7 7 6 6 7 8 10 12 10 9 9 7 6 7 7 5 4 3 4 5 5 5 5 3 6 12 13 10 10 11 12 14 15 16 17 16 16 16 17 19 20 21 22 23 24 24 25 25 25 25 26 26 26 26 26 26 27 27 28 28 29 29 30 30 31 31 32 32 32 32 31 31 31 31 31 31 32 31 31 31 31 31 31 31 32
3 3 2 2 4 7 8 8 6 4 3 5 5 4 4 3 2 6 7 6 8 11 9 4 2 7 11 10 9 10 10 12 15 16 17 18 18 17 16 17 19 21 22 23 24 25 25 25 26 26 26 27 27 27 27 27 27 27 27 27 28 29 29 30 30 31 32 32 33 33 33 33 32 32 32 32 32 32 32 32 32 32 32 32 32 32
3 3 3 3 2 3 4 2 1 1 1 2 4 5 5 6 5 6 8 7 7 9 9 6 4 6 7 6 9 12 14 18 21 21 20 21 20 19 18 18 19 21 23 25 26 26 26 27 27 27 27 27 28 28 28 29 29 29 29 29 28 29 29 30 30 31 32 32 33 34 34 34 34 34 34 33 33 34 33 34 34 34 33 33 33 33
4 5 5 4 3 2 2 2 2 3 4 5 8 10 12 14 13 10 8 7 5 5 8 10 8 8 11 12 14 18 20 23 24 23 22 21 20 19 19 20 21 22 24 25 27 27 27 27 28 28 28 28 28 29 29 30 30 31 31 31 31 31 31 31 31 31 32 33 33 34 34 35 35 35 36 35 35 35 35 35 35 35 35 35 35 34
4 5 5 6 6 6 5 5 6 10 11 12 14 15 15 15 14 11 9 8 9 12 17 20 18 19 20 18 17 20 22 23 25 25 23 23 22 20 19 20 21 23 25 26 27 28 28 28 28 28 29 29 29 30 30 30 31 31 32 32 33 33 33 33 34 34 34 34 35 35 35 36 36 36 37 37 37 37 36 37 37 37 37 37 37 36
3 4 4 5 7 9 10 10 12 13 14 15 16 16 15 14 13 13 13 13 12 13 17 18 18 22 24 19 18 23 26 27 30 31 31 31 31 29 28 27 27 28 29 29 29 30 30 31 31 31 32 32 32 32 32 33 33 33 33 33 34 34 35 35 35 36 36 37 37 37 37 38 38 38 38 38 38 38 38 38 38 38 38 38 38 38
2 2 2 3 5 7 9 10 11 12 14 16 16 16 16 15 15 16 18 19 18 19 22 22 22 27 29 26 26 29 31 32 33 33 33 34 35 34 32 30 29 30 30 31 33 34 35 36 36 36 37 37 37 37 37 37 36 36 36 36 36 36 36 37 37 37 38 38 39 39 40 40 40 41 41 41 41 41 41 40 40 40 40 40 40 40
1 1 1 3 5 6 8 8 10 12 14 16 17 17 17 17 18 19 21 22 23 27 31 32 34 36 34 30 31 32 32 31 29 25 25 29 31 29 27 27 29 30 32 33 36 38 38 39 40 40 40 40 40 40 40 40 39 39 39 39 39 39 39 39 39 39 39 39 40 40 41 41 42 43 43 44 44 44 44 44 43 43 42 42 42 42
1 2 3 4 7 8 7 7 9 12 15 19 19 18 17 18 18 18 20 20 22 27 29 28 32 34 30 26 27 27 27 27 25 22 23 27 30 29 28 29 31 33 33 34 35 36 37 38 38 39 40 41 41 41 42 42 41 41 41 41 41 41 41 41 41 42 42 42 42 42 42 42 42 43 44 45 45 46 47 47 47 47 47 46 45 45
2 3 4 6 7 8 7 8 11 15 19 21 17 10 9 11 13 13 15 16 19 23 23 23 29 30 25 23 24 24 25 26 25 24 25 27 30 31 30 31 33 34 35 35 35 36 37 37 38 39 39 40 41 41 42 42 41 41 41 41 41 41 41 42 42 42 42 43 43 44 44 44 44 44 44 45 46 46 47 48 48 49 50 50 49 49
3 4 5 5 5 6 8 10 13 16 16 12 7 5 8 10 12 13 15 17 18 20 21 24 27 24 20 21 24 25 27 28 28 28 27 26 30 33 33 34 36 36 35 35 35 35 36 36 36 37 37 38 38 39 40 40 40 40 40 39 40 40 40 40 41 41 42 42 43 43 44 44 45 45 45 45 46 47 47 48 48 49 49 50 51 51
3 4 5 4 3 5 9 12 14 11 6 3 5 11 15 15 15 16 17 19 19 20 23 26 27 24 23 25 28 29 29 29 30 31 30 30 31 34 35 36 35 34 33 32 32 32 33 33 33 34 34 35 35 36 37 37 37 38 38 37 37 38 38 39 39 39 40 40 40 41 42 42 43 44 44 45 46 47 47 48 49 49 49 50 50 51
4 4 5 5 4 6 9 10 7 2 3 8 16 19 18 17 16 17 19 19 19 20 23 25 26 26 26 27 29 30 30 30 30 30 31 31 32 32 33 32 31 30 31 31 30 31 31 32 33 33 33 34 34 35 35 36 36 36 35 35 36 36 36 36 37 37 37 37 38 39 39 40 41 42 43 43 44 46 47 48 49 50 50 51 51 51
4 4 5 5 5 6 5 2 2 7 14 18 18 16 15 14 14 17 21 21 19 20 22 24 25 24 24 25 28 30 31 32 32 31 31 31 30 29 29 29 27 27 28 29 29 29 29 30 31 32 32 33 33 34 34 34 34 34 34 34 35 35 35 35 35 35 35 36 36 36 37 38 39 40 41 42 43 44 45 46 47 49 50 51 52 53
4 4 4 4 4 5 5 6 11 17 18 13 9 8 11 14 16 18 22 24 24 23 24 24 24 22 23 27 29 30 31 32 32 30 28 26 24 24 24 24 24 24 25 26 27 28 29 30 31 32 33 34 35 35 35 35 35 35 35 35 36 36 36 36 35 35 36 36 36 36 37 38 38 39 40 40 42 43 44 45 46 47 48 50 52 53
5 5 5 4 3 5 5 6 9 10 7 5 7 10 14 18 19 18 24 30 29 22 18 18 18 18 20 23 25 25 26 27 25 23 21 19 19 19 21 24 26 27 28 29 30 31 33 34 34 35 36 37 38 38 38 38 38 37 37 38 38 37 37 37 36 37 37 38 38 38 39 39 39 39 39 40 41 42 42 43 44 45 47 49 51 52
7 7 8 8 8 8 6 3 3 6 6 8 14 19 21 22 22 21 24 28 23 15 12 14 15 16 19 21 22 22 22 23 22 20 20 21 23 25 29 32 34 35 36 37 37 37 38 38 38 39 39 40 40 41 41 40 40 40 40 40 39 39 39 38 38 39 39 39 40 40 40 40 40 40 40 40 41 41 42 42 43 44 46 47 49 51
8 8 10 12 12 12 11 9 10 13 13 15 21 24 22 22 22 17 13 15 17 16 18 18 18 19 20 20 22 23 24 26 26 26 28 30 33 36 38 38 37 37 38 38 38 38 38 39 39 40 40 41 42 42 42 42 42 41 41 40 40 40 39 39 39 39 40 40 40 40 40 41 41 41 41 41 41 41 42 42 43 44 45 46 48 50
10 10 12 13 14 14 14 15 17 19 19 19 21 21 19 18 17 13 11 17 22 23 23 23 22 23 24 24 26 28 29 31 33 35 37 39 40 40 39 38 37 36 37 37 38 39 40 40 40 40 41 42 42 43 43 42 42 41 40 40 39 39 39 38 38 38 39 39 39 39 39 40 40 41 41 42 42 42 42 43 44 45 46 47 48 49
9 8 10 12 12 12 14 16 18 18 15 13 16 19 18 16 17 17 21 25 26 25 27 28 28 29 31 32 33 35 36 36 37 37 38 39 39 39 38 38 37 37 38 39 40 41 41 41 40 40 40 41 42 42 42 42 41 40 39 38 38 38 37 36 36 36 36 36 36 37 37 38 39 40 41 41 42 43 44 45 46 47 47 48 48 49
9 8 9 11 9 8 10 11 10 10 13 17 20 21 21 21 23 27 29 29 29 30 31 32 33 34 35 35 35 35 36 36 36 36 37 37 38 38 38 38 38 39 39 40 40 40 41 40 40 40 39 40 40 41 41 40 39 38 37 37 36 35 34 33 33 33 33 34 34 35 36 37 38 39 40 42 43 45 46 47 48 48 48 48 49 49
13 11 11 12 10 8 10 10 10 15 22 25 24 24 26 27 29 31 30 30 32 32 32 32 33 34 35 35 35 35 34 34 35 36 37 37 37 37 38 38 38 38 39 39 39 40 39 39 39 39 39 39 39 39 39 38 37 36 35 34 33 31 30 30 30 31 32 33 34 35 36 37 38 40 41 43 44 46 47 47 48 47 47 47 47 47
13 13 13 15 16 16 17 19 21 23 24 24 25 27 29 29 30 31 31 32 32 32 32 33 33 32 33 34 35 35 35 35 35 36 36 36 36 35 36 36 36 37 37 38 38 38 38 38 38 37 37 37 37 36 35 34 34 32 31 30 29 28 28 29 30 31 32 33 34 35 36 36 37 38 40 41 42 43 44 45 45 45 45 45 45 45
15 16 18 19 21 23 23 21 21 21 22 24 26 28 28 29 30 31 31 32 32 32 32 33 33 33 33 33 34 34 34 34 35 35 34 34 33 32 32 32 33 34 35 36 36 36 35 35 35 35 34 34 34 33 31 30 29 28 27 26 26 26 28 29 30 31 31 31 32 32 33 33 34 36 37 39 40 41 42 43 44 44 44 45 45 45
18 19 21 21 21 22 22 20 19 21 22 24 26 27 28 29 29 29 30 32 32 32 32 32 33 33 34 34 34 33 32 33 34 33 32 31 29 28 29 30 30 32 33 33 33 33 33 32 32 32 31 30 30 28 26 25 25 25 25 25 26 27 27 28 28 28 29 29 30 30 31 32 33 35 36 38 39 41 41 42 43 43 44 44 45 45
19 19 20 21 22 23 24 22 21 21 22 24 26 27 27 27 28 29 30 31 31 32 32 32 33 33 33 33 33 32 32 31 31 31 29 27 26 26 26 27 29 29 30 30 30 30 30 29 28 28 27 26 25 24 23 24 24 25 25 25 26 26 27 27 27 27 28 28 29 30 31 32 34 35 36 37 39 40 41 41 42 42 42 42 43 44
22 22 21 22 23 24 24 22 21 23 24 25 25 26 26 27 29 30 30 30 31 31 32 32 32 32 32 32 32 32 31 30 29 29 27 26 26 26 27 27 28 28 28 28 28 28 27 26 25 24 23 22 22 22 23 24 25 25 25 25 26 26 26 26 27 27 28 29 29 30 32 33 34 35 36 37 38 39 39 40 40 41 40 40 40 41
22 21 19 21 24 24 23 21 22 25 26 25 25 26 26 27 28 30 30 30 30 30 31 31 31 31 31 31 31 32 31 30 29 28 27 26 27 27 27 27 27 27 27 27 27 26 25 24 24 23 22 22 22 23 23 24 25 26 26 26 26 26 26 26 27 27 28 29 30 31 32 33 34 36 36 37 37 37 37 37 37 38 38 38 37 37
18 19 18 21 24 24 24 23 24 25 26 25 26 26 27 28 29 30 30 29 29 30 30 31 31 31 31 31 31 32 31 30 29 28 27 27 28 28 28 28 27 27 27 26 26 25 25 25 24 24 23 23 23 24 24 25 26 26 26 26 26 27 27 27 27 27 28 29 30 31 32 33 34 36 36 36 36 35 34 34 33 33 34 35 35 35
Wind_Direction
238 237 237 239 241 241 244 250 248 237 233 247 255 253 246 237 246 244 239 235 222 226 230 229 227 234 245 249 245 245 246 247 250 254 257 259 260 259 257 257 255 253 251 251 251 252 253 255 256 258 259 260 262 263 265 267 268 269 267 264 261 259 259 260 260 261 259 254 254 253 254 258 255 251 246 240 241 241 252 266 246 230 240 237 226 225
235 237 242 246 255 254 245 252 260 248 239 246 254 257 255 242 259 278 264 250 234 233 238 240 234 234 243 248 247 249 251 251 252 254 256 258 261 261 260 258 257 255 254 253 253 254 255 255 257 258 259 261 263 264 263 264 265 265 264 258 255 253 250 254 262 267 267 262 257 252 248 255 261 258 253 246 244 244 250 261 255 240 245 240 231 233
246 254 261 254 256 253 239 237 242 241 240 246 252 259 261 253 258 272 268 259 248 244 244 238 232 237 243 246 247 249 251 253 256 256 257 257 259 261 261 260 259 258 256 255 255 255 256 256 257 258 259 260 261 262 261 260 261 260 260 255 250 248 245 244 250 258 266 268 265 257 241 233 241 253 256 255 254 254 256 260 262 255 250 247 243 240
252 267 250 232 232 230 232 233 231 232 235 241 243 247 255 255 254 259 260 256 247 244 244 237 231 238 244 245 246 247 249 252 256 258 258 256 255 257 258 259 259 259 258 257 256 256 257 257 258 259 260 260 259 259 259 257 259 258 257 255 249 246 245 243 243 245 255 265 267 264 252 237 232 229 232 244 252 256 259 260 262 260 254 252 254 253
224 244 229 224 230 227 231 237 236 240 245 250 252 251 254 251 245 251 255 252 240 240 241 234 234 242 243 244 246 247 249 250 251 254 256 256 256 256 257 258 258 258 258 257 257 257 258 259 260 261 261 262 260 257 257 257 257 258 257 257 252 247 247 246 245 245 249 258 263 264 261 250 243 236 226 222 226 229 237 246 251 255 255 255 253 251
227 244 238 229 233 228 231 237 237 250 255 257 261 260 259 253 243 247 250 245 240 247 245 232 237 251 245 244 248 247 247 249 249 251 254 256 257 257 258 258 258 259 259 259 260 260 261 262 262 262 261 261 261 257 256 257 257 258 258 258 256 250 247 247 247 248 248 253 260 262 263 259 254 252 246 239 231 224 220 223 231 238 246 251 250 246
236 246 245 240 239 233 238 246 240 247 250 252 254 250 253 247 240 245 250 247 244 254 255 234 230 254 251 240 242 243 244 246 248 250 252 253 255 256 258 259 259 260 260 260 261 262 263 264 263 264 263 261 261 259 256 256 257 259 259 258 256 253 249 246 246 248 248 248 254 259 262 263 261 261 260 258 254 248 242 237 234 236 241 244 246 245
240 248 251 248 249 248 251 251 240 234 234 236 244 244 244 236 229 237 247 251 250 256 260 237 230 249 262 246 242 243 242 244 247 249 251 252 253 254 256 257 258 260 261 261 262 263 263 264 263 263 263 262 260 259 256 256 257 258 259 258 256 254 251 248 246 246 247 247 249 253 256 260 263 264 264 265 265 264 262 260 257 256 257 255 250 249
241 250 262 256 250 246 244 242 231 223 218 220 234 240 238 231 222 229 240 245 251 257 256 238 226 239 262 250 246 245 243 245 247 248 250 251 252 254 255 256 257 258 260 261 262 263 263 262 262 261 261 261 259 258 257 256 257 257 258 258 256 254 252 250 249 247 247 247 247 248 250 253 257 261 262 264 266 268 269 270 272 272 273 272 267 261
241 241 260 263 236 218 229 238 228 220 217 221 233 240 239 242 237 236 239 241 248 252 248 237 219 217 262 256 245 242 241 243 245 246 248 250 252 254 255 256 257 258 259 260 261 261 261 260 260 260 259 259 258 257 257 256 257 257 258 258 256 254 252 251 251 250 250 250 249 249 250 251 252 254 257 259 261 264 268 270 273 276 278 279 279 276
251 253 261 260 240 224 228 239 232 228 231 235 246 253 258 262 257 253 246 240 247 246 245 240 218 210 244 255 239 236 238 240 244 248 248 249 251 253 256 256 257 259 258 259 260 259 259 258 258 257 257 257 257 256 256 256 257 257 257 258 256 254 253 252 252 253 254 255 255 254 253 253 253 253 254 254 255 257 261 265 268 271 275 277 278 280
260 266 269 264 255 244 240 245 244 244 246 249 255 257 263 263 249 248 238 223 222 248 249 241 218 215 223 229 232 234 238 242 246 251 253 252 253 254 256 257 257 257 257 256 257 257 257 256 256 255 255 255 255 255 255 255 256 257 257 258 258 257 255 255 255 256 257 258 259 259 258 257 256 256 256 255 254 253 254 256 260 263 266 270 272 274
270 276 278 274 264 259 256 254 254 257 254 255 250 223 202 233 204 206 214 206 222 245 253 233 211 216 226 234 240 238 237 241 245 252 256 256 256 256 256 257 255 254 254 254 254 254 255 255 254 254 254 254 254 254 255 255 255 256 257 257 258 258 258 258 258 258 259 259 259 259 259 259 259 258 258 258 257 256 254 253 254 256 259 262 265 267
272 277 277 274 268 267 264 243 210 215 206 186 215 203 193 212 213 217 211 205 240 245 248 230 207 210 223 233 243 244 241 245 249 254 257 255 254 255 256 257 256 253 252 252 252 252 253 253 254 254 254 254 254 254 255 256 256 256 256 256 257 258 259 259 259 259 259 259 258 258 258 259 260 260 259 259 259 259 258 256 254 254 254 256 259 261
246 261 268 266 265 274 273 233 209 214 201 176 193 207 223 254 268 231 198 131 22 288 248 212 196 219 229 231 247 254 252 253 253 254 256 256 255 256 258 259 259 256 253 251 251 251 252 252 253 254 255 254 254 254 255 256 257 257 257 257 257 258 258 258 259 259 259 259 258 257 258 258 259 260 260 260 260 260 260 259 258 256 254 254 255 257
242 256 267 266 266 275 288 261 238 236 226 210 209 213 238 258 257 268 290 284 295 350 290 205 212 259 255 245 252 259 260 257 256 256 255 256 257 258 260 262 263 262 258 254 253 252 252 253 253 254 255 256 255 255 256 256 257 257 258 258 259 259 259 259 258 258 258 259 259 258 258 258 258 259 260 260 260 260 260 259 259 258 257 256 255 255
223 244 266 273 273 274 278 275 264 245 232 229 217 216 236 249 258 275 291 283 272 285 256 226 231 256 258 262 261 258 261 260 258 258 256 256 258 258 260 260 261 263 261 258 256 254 254 253 254 255 255 256 257 257 257 257 257 258 258 259 259 260 260 260 260 259 258 258 258 259 258 258 257 257 258 259 259 259 260 259 258 257 257 257 256 256
245 262 279 279 274 279 279 274 269 248 239 239 228 234 244 246 257 256 267 292 268 252 253 228 225 231 229 254 264 259 259 260 257 256 256 257 256 256 257 257 258 259 260 259 257 255 255 254 254 255 255 256 256 256 257 256 257 257 258 258 258 259 260 260 261 260 260 259 258 258 258 259 259 258 257 257 258 258 258 258 257 256 255 255 255 255
255 274 281 277 273 283 285 270 264 254 244 240 239 250 249 243 266 242 220 292 272 253 267 237 233 224 197 224 258 261 260 260 260 259 255 254 254 254 256 256 256 256 256 256 256 254 254 254 254 254 254 254 255 255 256 256 256 256 256 257 257 258 258 259 260 260 260 260 260 259 259 259 259 259 259 258 257 257 256 255 256 256 255 254 253 254
238 251 264 277 270 278 285 260 254 261 248 235 239 250 240 228 259 260 247 284 298 265 278 253 246 210 183 226 256 267 265 265 269 272 268 268 269 267 267 266 262 259 257 255 255 254 253 252 252 253 253 253 254 254 255 255 255 255 255 256 256 256 257 257 258 259 260 260 260 259 259 259 259 259 259 259 257 256 255 254 254 254 254 254 253 253
214 213 234 246 253 268 282 276 283 293 283 263 257 268 267 247 248 263 263 265 265 270 299 267 255 125 207 253 238 249 266 273 278 287 297 302 299 287 280 276 271 268 265 261 259 257 256 254 253 253 253 253 253 254 254 254 255 255 255 255 255 255 255 256 256 257 258 259 259 258 258 258 258 258 258 258 257 256 255 253 252 252 251 252 252 253
209 217 236 257 287 287 284 293 297 297 293 286 277 278 281 268 259 262 266 264 254 255 315 290 276 237 244 252 228 234 260 278 288 301 314 316 311 300 289 282 278 274 271 268 266 264 262 260 259 257 256 255 255 254 254 254 255 255 255 255 255 254 254 254 255 255 256 257 257 257 257 257 256 256 256 256 256 256 255 254 252 251 250 250 250 251
225 231 250 271 289 288 292 299 299 294 289 286 276 266 266 266 254 213 229 312 304 277 295 303 282 258 252 255 261 255 256 278 298 309 312 312 312 306 296 286 279 275 272 269 268 267 266 265 264 263 261 260 259 258 257 256 256 255 255 255 254 254 254 253 253 253 254 255 255 256 256 256 255 255 255 255 255 255 255 254 253 252 251 250 249 249
234 232 244 245 259 278 296 306 307 302 285 270 265 272 278 282 256 230 245 296 297 272 276 295 266 248 246 248 266 270 270 289 304 310 308 310 313 310 300 290 282 277 273 270 267 265 265 265 264 264 264 264 263 263 262 261 260 259 258 257 256 255 254 253 253 253 253 253 254 254 255 255 255 254 254 254 254 254 254 254 254 253 252 251 251 250
225 199 172 167 218 270 287 304 56 115 183 263 291 299 306 309 299 268 259 268 279 269 254 239 249 257 247 251 275 285 291 296 301 308 310 310 309 308 303 294 285 279 274 272 269 267 265 265 265 265 265 265 264 264 264 264 264 264 262 261 260 259 258 257 256 255 254 254 254 254 254 254 254 254 254 254 253 253 254 254 254 254 253 252 252 251
230 210 192 189 199 222 222 175 162 222 263 296 296 291 297 300 294 284 270 248 249 261 233 225 245 276 284 292 296 298 300 300 301 304 308 308 306 303 299 292 284 278 273 271 269 268 267 267 267 267 267 268 267 267 266 266 266 266 266 265 264 263 262 262 261 260 258 257 257 257 256 256 256 255 255 255 254 254 253 254 254 254 254 253 252 252
218 218 217 216 224 240 247 243 254 272 284 287 285 285 288 291 288 283 270 237 238 268 265 253 255 269 279 290 299 299 299 300 299 299 300 301 300 297 294 291 288 283 277 273 270 269 269 269 270 272 272 272 273 272 271 271 270 270 270 269 269 268 267 266 265 264 263 262 261 260 260 259 259 258 258 257 257 256 255 254 254 254 254 254 253 252
210 212 212 220 238 252 261 269 274 281 286 284 283 286 283 280 275 265 257 250 253 271 271 261 258 262 266 273 286 290 291 293 295 295 295 293 291 289 288 287 287 286 283 279 276 274 273 274 275 277 277 277 278 278 277 277 276 275 274 273 273 272 271 270 269 268 267 266 265 264 263 263 262 262 261 261 260 260 259 257 256 255 254 254 253 253
229 211 212 242 257 263 269 278 282 283 286 285 285 287 284 279 273 263 259 260 259 260 263 268 271 269 269 274 279 281 283 287 290 292 293 291 288 286 285 284 281 279 278 277 277 277 277 277 278 279 280 281 281 281 281 281 280 280 279 278 277 276 276 275 274 272 271 270 269 268 267 266 265 264 264 263 263 263 262 262 260 259 257 256 255 254
281 276 304 282 276 278 281 287 289 288 288 288 287 287 286 282 277 272 270 267 263 262 267 274 277 278 281 286 284 282 283 285 285 285 285 284 284 285 284 280 276 274 274 275 276 278 278 279 279 281 282 282 283 283 283 283 283 283 282 282 281 280 279 278 277 276 276 274 273 272 271 269 268 267 267 265 265 264 264 264 263 263 262 260 259 257
322 316 319 312 304 302 303 304 303 301 298 296 295 292 286 281 278 274 273 272 268 267 273 278 278 281 288 291 288 287 287 287 285 279 272 272 276 278 278 277 277 278 280 280 280 281 281 281 281 282 283 284 285 285 286 285 286 286 285 285 285 284 283 282 281 280 279 278 277 276 275 274 272 271 270 269 268 267 266 265 264 264 263 263 262 261
337 321 317 320 314 310 316 315 310 308 302 298 300 306 295 284 283 281 278 276 274 275 280 280 277 283 290 288 284 283 283 284 284 279 273 271 271 272 272 273 277 282 284 284 283 283 283 283 283 284 284 285 286 286 287 287 287 288 288 288 288 287 286 285 284 283 282 281 281 280 279 278 277 275 274 273 271 270 269 267 266 265 264 263 263 262
324 314 312 316 308 301 307 310 311 312 307 299 301 327 319 304 297 291 285 281 280 280 279 276 278 284 284 277 276 278 280 282 281 279 277 273 272 275 277 278 280 284 285 285 284 284 284 284 285 285 285 285 285 286 286 287 287 288 288 288 288 288 288 287 287 286 286 285 284 283 282 281 280 279 278 277 275 274 272 271 269 268 267 265 264 263
307 307 305 298 285 288 300 312 317 315 308 305 315 314 311 306 299 290 281 278 277 273 271 272 275 277 273 271 274 275 278 281 282 282 282 279 278 280 282 282 284 286 286 285 284 284 285 285 285 285 286 285 285 286 286 286 286 287 287 288 288 288 288 288 288 288 287 287 286 286 285 284 283 282 282 281 279 278 276 275 273 272 270 269 267 266
290 290 292 294 291 290 302 320 335 324 271 303 308 306 303 302 299 289 283 284 283 277 274 273 273 275 275 275 274 275 279 283 284 283 283 283 283 283 284 285 286 286 286 285 285 284 284 284 285 285 285 286 286 286 286 286 286 286 287 287 287 288 288 288 287 287 287 287 287 287 287 286 286 285 284 283 283 282 281 279 278 276 275 273 271 269
291 287 288 301 297 289 296 297 243 286 298 301 300 299 300 304 305 297 294 297 296 288 284 283 282 283 279 275 276 279 282 284 283 281 281 281 282 284 286 288 287 286 285 285 285 285 284 284 285 285 285 286 286 287 287 287 288 288 288 288 288 288 288 288 287 287 287 287 287 287 287 287 287 286 286 285 285 284 283 283 282 280 279 277 276 274
290 285 291 304 281 261 262 253 270 293 304 299 292 302 307 309 310 303 297 300 302 298 292 289 287 284 277 274 277 280 280 281 282 282 282 282 282 283 285 288 289 288 287 285 285 285 286 286 286 286 286 287 287 287 288 289 289 289 289 289 289 289 288 288 288 288 288 288 288 288 288 287 287 287 286 286 286 286 285 285 284 283 282 281 279 278
283 271 275 283 253 250 275 288 293 303 301 271 283 309 312 309 311 304 295 299 305 305 296 289 286 283 279 280 281 280 278 278 280 283 286 286 286 288 290 292 293 291 289 287 285 285 286 286 286 286 286 286 286 287 288 288 288 289 289 289 289 289 289 288 288 288 289 289 289 289 289 289 288 288 287 287 287 286 286 286 285 285 284 283 282 281
280 274 266 257 248 247 251 255 261 264 263 275 296 308 310 308 308 305 297 301 310 314 305 296 291 287 284 284 284 280 275 275 277 281 285 285 286 290 292 292 291 290 288 287 286 285 285 285 285 285 285 285 285 286 287 287 287 288 288 289 289 288 288 288 288 289 289 289 290 289 289 289 289 289 288 288 288 287 287 286 286 285 285 284 284 283
271 270 263 256 255 255 250 245 250 262 279 294 298 302 306 307 307 306 300 303 309 308 303 300 293 288 286 282 279 276 274 276 278 280 281 283 285 288 290 290 289 287 286 285 285 284 284 283 283 283 284 284 285 285 285 286 287 287 288 288 288 288 288 288 288 288 289 289 289 289 289 289 289 289 288 288 288 288 287 287 286 286 285 285 284 283
265 264 262 260 261 257 245 243 258 278 294 298 293 298 308 305 294 286 286 297 301 299 297 294 289 286 285 281 278 277 276 277 279 280 282 284 287 288 289 289 288 287 286 285 284 284 284 283 283 283 284 284 284 284 285 285 286 287 287 287 287 287 288 288 288 288 289 289 289 289 289 289 289 289 289 288 288 288 287 287 287 287 286 286 285 284
260 257 255 253 255 254 246 249 266 284 301 306 299 303 307 293 281 287 296 298 296 292 290 288 285 283 282 281 282 283 283 283 283 284 285 286 288 289 290 289 289 288 287 286 285 285 284 284 284 284 284 283 283 283 284 284 285 286 287 287 287 287 288 288 288 288 289 289 289 289 289 289 289 289 289 289 288 288 288 288 288 288 288 287 286 285
264 256 251 252 256 251 238 241 262 292 310 315 310 304 298 289 290 296 297 293 290 288 286 284 285 285 285 286 287 287 287 288 288 288 288 288 289 290 290 290 290 289 288 287 286 286 285 285 285 284 284 284 283 283 284 284 285 286 287 287 287 288 289 289 289 289 289 290 290 290 290 290 290 290 289 289 288 288 289 289 289 288 288 287 286 285
265 257 256 264 267 248 231 244 283 304 309 311 308 302 299 298 299 300 297 294 293 292 289 287 287 287 288 290 292 291 291 291 290 290 290 290 291 291 291 291 290 290 289 288 287 286 286 285 285 284 285 284 284 283 284 285 286 287 287 287 288 289 289 289 290 291 291 291 291 290 290 291 290 290 290 289 289 289 289 289 288 288 287 287 287 286
269 267 269 274 273 269 272 285 298 305 309 309 305 303 303 303 302 302 300 298 295 293 292 291 290 289 290 291 292 292 294 294 293 293 293 293 293 292 291 291 290 290 289 288 288 288 287 286 286 285 285 285 284 284 285 286 286 286 286 287 288 289 290 291 292 292 292 292 292 292 293 293 293 293 292 292 291 290 290 289 288 288 287 286 286 286
277 277 276 277 278 280 288 299 305 309 310 307 303 303 304 303 302 302 299 297 296 295 293 292 292 292 292 291 291 292 294 294 294 295 295 295 294 292 292 292 292 291 291 291 291 291 289 288 287 286 286 286 285 286 286 286 286 285 286 288 290 291 292 293 293 294 295 295 296 296 297 297 296 296 295 294 293 292 291 290 289 287 287 286 285 284
281 278 275 278 280 282 291 306 313 309 305 302 301 303 304 303 303 302 299 298 297 295 293 292 292 292 292 292 293 294 293 294 294 295 296 295 294 294 295 296 296 297 297 296 295 293 292 291 289 288 287 286 286 286 286 285 284 285 288 290 293 293 294 295 295 297 298 298 299 299 299 299 299 298 297 296 296 295 293 292 291 289 287 286 285 283
283 278 277 281 281 282 293 309 313 306 303 304 304 306 307 305 304 302 300 300 298 296 295 293 292 292 293 293 293 293 293 293 294 295 295 294 294 295 297 300 302 302 301 299 297 296 296 294 292 290 288 287 286 286 286 285 286 288 290 293 295 295 296 297 298 299 299 299 299 300 300 300 301 301 301 300 299 298 296 294 293 291 290 289 287 285
281 279 281 282 282 285 298 311 310 305 306 308 307 308 309 306 305 304 303 303 301 299 297 295 295 295 294 293 292 292 292 292 293 293 293 292 293 295 298 302 305 305 304 301 299 299 298 296 293 291 289 288 287 287 287 287 287 289 292 294 296 297 298 299 299 299 299 299 299 300 301 303 304 304 304 303 302 300 298 296 295 293 291 291 290 288
279 280 281 279 281 291 303 309 306 305 308 311 311 312 310 308 306 306 306 306 304 303 301 299 298 297 295 294 293 291 291 291 290 290 290 290 292 294 297 301 304 307 306 303 300 299 298 295 293 292 290 290 289 289 289 288 288 289 292 295 296 298 299 299 298 298 299 299 300 302 303 305 306 306 306 305 304 302 300 298 297 296 295 293 292 290
278 280 280 279 286 298 306 307 305 306 309 312 313 311 310 309 309 309 308 308 307 305 304 302 301 300 298 296 294 292 290 289 287 286 287 288 290 292 295 298 301 304 306 305 302 299 296 294 292 291 291 291 291 290 289 288 288 290 293 295 296 298 298 298 298 299 299 300 301 303 304 306 307 308 308 308 308 306 303 300 298 298 298 297 294 292
Height
3033 3034 3034 3034 3036 3038 3039 3040 3041 3043 3044 3044 3044 3044 3045 3046 3046 3046 3045 3045 3047 3047 3048 3048 3050 3049 3046 3047 3050 3049 3049 3050 3049 3049 3049 3049 3049 3050 3051 3051 3053 3054 3055 3057 3058 3059 3060 3061 3062 3063 3064 3065 3066 3067 3068 3068 3069 3069 3070 3070 3071 3071 3071 3071 3071 3072 3072 3074 3075 3076 3078 3080 3081 3082 3083 3084 3086 3085 3085 3085 3085 3088 3091 3093 3094 3096
3032 3032 3032 3034 3036 3037 3039 3039 3040 3041 3042 3042 3043 3042 3043 3044 3044 3044 3044 3045 3046 3046 3047 3048 3049 3048 3044 3044 3046 3047 3047 3047 3047 3047 3047 3048 3048 3048 3049 3049 3050 3051 3053 3054 3055 3056 3057 3058 3059 3059 3061 3062 3062 3064 3065 3066 3066 3067 3067 3068 3068 3069 3069 3069 3069 3070 3070 3071 3072 3073 3076 3078 3078 3079 3080 3082 3082 3082 3082 3083 3083 3084 3086 3087 3089 3091
3031 3031 3032 3034 3035 3036 3037 3038 3039 3039 3040 3041 3041 3042 3041 3042 3043 3043 3043 3044 3045 3045 3046 3047 3048 3046 3042 3041 3043 3044 3044 3045 3045 3045 3045 3045 3046 3046 3047 3047 3048 3049 3050 3051 3052 3053 3054 3055 3055 3056 3057 3058 3059 3060 3061 3062 3063 3064 3065 3065 3066 3066 3067 3067 3068 3068 3068 3069 3070 3071 3073 3074 3075 3075 3077 3078 3079 3079 3080 3080 3081 3082 3082 3081 3082 3084
3031 3031 3031 3032 3033 3034 3035 3036 3037 3037 3038 3039 3040 3041 3040 3041 3043 3042 3041 3042 3043 3043 3044 3045 3045 3043 3040 3039 3040 3041 3042 3043 3043 3043 3042 3043 3043 3044 3044 3045 3046 3047 3048 3049 3049 3050 3051 3052 3053 3054 3054 3055 3056 3057 3058 3059 3060 3061 3062 3062 3063 3064 3064 3065 3065 3066 3067 3067 3068 3069 3070 3071 3072 3072 3073 3074 3076 3076 3077 3077 3077 3078 3078 3078 3078 3079
3030 3030 3030 3030 3031 3032 3034 3034 3035 3036 3036 3037 3038 3039 3039 3041 3041 3040 3040 3040 3040 3041 3041 3043 3043 3039 3036 3036 3037 3039 3040 3040 3040 3040 3039 3040 3041 3041 3042 3043 3044 3045 3046 3046 3047 3048 3048 3049 3050 3051 3052 3053 3053 3054 3055 3056 3057 3058 3059 3060 3060 3061 3062 3062 3063 3063 3064 3065 3066 3066 3068 3068 3069 3069 3070 3070 3071 3072 3072 3072 3073 3073 3073 3074 3075 3076
3029 3028 3028 3029 3030 3031 3032 3033 3034 3035 3035 3036 3037 3037 3037 3038 3039 3039 3038 3038 3039 3039 3039 3042 3041 3036 3033 3035 3035 3036 3037 3036 3036 3037 3037 3037 3038 3039 3040 3040 3041 3042 3043 3044 3044 3045 3046 3047 3047 3048 3049 3050 3051 3052 3052 3053 3054 3055 3056 3057 3058 3058 3059 3059 3060 3061 3062 3063 3063 3064 3065 3066 3067 3067 3067 3067 3067 3068 3068 3068 3068 3069 3069 3069 3071 3072
3027 3026 3027 3028 3029 3030 3031 3032 3033 3033 3033 3035 3035 3035 3034 3035 3037 3037 3036 3037 3037 3037 3037 3040 3039 3034 3031 3032 3032 3032 3033 3032 3032 3033 3034 3035 3035 3036 3037 3037 3038 3039 3040 3041 3041 3042 3043 3044 3045 3045 3046 3047 3048 3049 3050 3050 3051 3052 3053 3054 3055 3056 3056 3057 3057 3058 3059 3060 3061 3061 3062 3063 3064 3065 3065 3065 3065 3065 3065 3065 3065 3065 3066 3066 3067 3068
3024 3024 3025 3026 3027 3028 3029 3030 3031 3031 3032 3033 3032 3033 3033 3033 3035 3035 3035 3035 3035 3036 3036 3036 3037 3034 3030 3029 3029 3029 3030 3029 3029 3030 3031 3032 3032 3033 3034 3034 3035 3035 3036 3037 3038 3039 3040 3041 3042 3042 3043 3044 3045 3046 3047 3048 3049 3049 3050 3051 3052 3053 3053 3054 3055 3055 3056 3057 3058 3059 3059 3060 3061 3061 3062 3063 3063 3063 3063 3062 3062 3062 3063 3064 3064 3065
3023 3023 3024 3025 3026 3026 3026 3027 3028 3029 3030 3030 3030 3031 3032 3032 3033 3033 3034 3034 3035 3035 3033 3032 3035 3034 3028 3026 3028 3028 3027 3027 3027 3027 3028 3029 3029 3030 3031 3031 3032 3032 3033 3034 3035 3036 3036 3037 3038 3039 3040 3041 3042 3043 3044 3045 3046 3047 3047 3048 3049 3050 3051 3051 3052 3053 3053 3054 3055 3056 3057 3057 3057 3058 3059 3060 3061 3061 3061 3060 3059 3060 3060 3061 3061 3062
3022 3023 3023 3024 3025 3024 3024 3025 3027 3028 3028 3028 3028 3029 3030 3031 3031 3033 3033 3033 3034 3033 3029 3028 3032 3031 3026 3024 3025 3025 3024 3024 3023 3023 3025 3026 3027 3028 3028 3029 3029 3029 3030 3031 3031 3032 3033 3034 3035 3036 3037 3038 3039 3040 3041 3042 3043 3044 3044 3045 3046 3047 3048 3049 3049 3050 3051 3051 3052 3053 3053 3054 3054 3055 3056 3057 3057 3058 3058 3057 3057 3057 3057 3058 3058 3059
3022 3022 3023 3023 3023 3023 3024 3024 3025 3026 3026 3027 3027 3028 3029 3030 3030 3031 3031 3032 3034 3029 3023 3025 3029 3030 3027 3022 3021 3022 3021 3020 3020 3020 3022 3024 3025 3025 3026 3026 3027 3027 3027 3028 3028 3029 3030 3031 3031 3032 3033 3034 3035 3036 3038 3039 3039 3040 3041 3042 3043 3044 3045 3046 3046 3047 3048 3048 3049 3049 3050 3050 3051 3052 3053 3053 3054 3054 3055 3055 3054 3055 3055 3055 3056 3056
3021 3021 3022 3022 3022 3022 3023 3024 3024 3025 3026 3026 3026 3027 3028 3028 3029 3030 3029 3031 3031 3024 3019 3023 3027 3029 3025 3020 3018 3018 3018 3018 3018 3018 3020 3022 3023 3023 3023 3024 3024 3024 3024 3025 3025 3025 3026 3027 3028 3029 3030 3031 3032 3033 3034 3035 3036 3037 3038 3039 3040 3041 3042 3043 3043 3044 3045 3045 3046 3046 3047 3047 3048 3048 3049 3050 3050 3051 3051 3052 3052 3052 3052 3052 3053 3053
3020 3020 3020 3020 3021 3021 3022 3023 3024 3024 3024 3025 3025 3026 3027 3027 3028 3029 3028 3028 3026 3020 3018 3021 3023 3024 3021 3017 3016 3015 3016 3016 3016 3016 3018 3020 3021 3021 3020 3021 3021 3021 3021 3021 3022 3022 3023 3023 3024 3025 3026 3027 3028 3029 3030 3031 3033 3033 3034 3035 3036 3037 3038 3039 3040 3040 3041 3042 3042 3043 3043 3043 3044 3045 3045 3046 3047 3047 3048 3048 3049 3049 3049 3049 3050 3050
3019 3019 3019 3019 3019 3020 3020 3021 3022 3022 3022 3024 3024 3025 3026 3026 3027 3027 3024 3024 3022 3019 3018 3020 3022 3021 3017 3015 3013 3013 3014 3015 3015 3016 3016 3017 3018 3017 3017 3018 3018 3018 3018 3019 3019 3019 3020 3020 3021 3022 3023 3024 3025 3026 3027 3028 3029 3030 3031 3032 3033 3034 3034 3035 3036 3037 3037 3038 3039 3039 3039 3040 3040 3041 3042 3042 3043 3043 3044 3044 3045 3045 3046 3046 3046 3047
3018 3018 3018 3018 3018 3019 3019 3020 3021 3021 3022 3023 3023 3024 3024 3024 3025 3023 3020 3021 3021 3018 3017 3019 3020 3017 3014 3013 3012 3012 3013 3014 3014 3014 3014 3014 3015 3015 3015 3015 3015 3015 3016 3016 3016 3017 3017 3018 3019 3019 3020 3021 3021 3022 3023 3024 3025 3026 3027 3028 3029 3030 3030 3031 3032 3033 3033 3034 3035 3035 3036 3036 3037 3037 3038 3039 3039 3039 3040 3040 3041 3041 3042 3042 3043 3043
3017 3017 3017 3018 3018 3019 3019 3019 3020 3020 3021 3022 3022 3023 3023 3022 3023 3022 3019 3019 3020 3019 3019 3018 3016 3013 3012 3012 3012 3011 3012 3011 3012 3011 3011 3012 3012 3012 3013 3013 3013 3013 3013 3014 3014 3014 3015 3015 3016 3017 3017 3018 3018 3019 3020 3021 3022 3022 3023 3024 3025 3026 3026 3027 3028 3029 3029 3030 3031 3031 3032 3033 3033 3034 3034 3035 3035 3035 3036 3036 3037 3037 3038 3038 3039 3040
3016 3017 3017 3017 3017 3018 3018 3019 3019 3020 3020 3020 3020 3021 3021 3021 3022 3021 3019 3018 3019 3020 3017 3015 3013 3011 3011 3011 3010 3010 3010 3009 3009 3009 3009 3009 3009 3010 3010 3010 3011 3011 3011 3011 3012 3012 3013 3013 3014 3014 3015 3015 3015 3016 3017 3018 3018 3019 3020 3020 3021 3022 3022 3023 3024 3024 3025 3026 3027 3027 3028 3029 3029 3030 3030 3031 3031 3031 3032 3032 3033 3033 3034 3034 3035 3036
3016 3016 3016 3016 3016 3017 3018 3018 3018 3018 3018 3019 3020 3019 3020 3021 3021 3021 3021 3019 3019 3018 3013 3010 3010 3010 3010 3010 3008 3008 3007 3007 3006 3006 3006 3006 3007 3007 3007 3007 3008 3008 3009 3009 3009 3010 3010 3011 3011 3012 3012 3013 3013 3013 3014 3015 3015 3016 3017 3017 3018 3018 3019 3019 3020 3020 3021 3022 3022 3023 3024 3024 3025 3025 3026 3027 3027 3027 3028 3028 3029 3029 3030 3031 3031 3032
3015 3015 3015 3015 3015 3016 3016 3016 3016 3017 3017 3018 3018 3018 3019 3020 3020 3020 3021 3019 3018 3016 3010 3007 3008 3008 3008 3008 3007 3005 3005 3004 3003 3003 3004 3003 3004 3004 3005 3005 3006 3006 3006 3006 3007 3007 3008 3008 3009 3009 3010 3010 3010 3011 3011 3012 3012 3013 3013 3014 3015 3015 3016 3016 3016 3017 3017 3018 3018 3019 3019 3020 3020 3021 3021 3022 3022 3023 3024 3024 3025 3025 3026 3027 3028 3028
3014 3015 3015 3014 3015 3015 3015 3015 3015 3015 3016 3017 3017 3017 3018 3019 3019 3019 3018 3017 3017 3015 3011 3007 3006 3007 3007 3006 3005 3004 3003 3003 3002 3002 3002 3003 3003 3004 3004 3004 3005 3005 3005 3005 3005 3005 3006 3006 3007 3007 3008 3008 3008 3009 3009 3009 3010 3010 3011 3011 3012 3012 3013 3013 3013 3014 3014 3014 3015 3015 3015 3016 3016 3017 3017 3017 3018 3019 3020 3020 3021 3022 3022 3023 3023 3024
3013 3014 3014 3013 3013 3013 3014 3014 3014 3014 3015 3015 3015 3016 3016 3017 3018 3018 3017 3016 3016 3015 3012 3009 3006 3005 3006 3005 3005 3004 3002 3002 3002 3002 3003 3003 3003 3004 3004 3003 3004 3004 3004 3004 3004 3004 3004 3005 3005 3005 3005 3006 3006 3006 3007 3007 3007 3008 3008 3008 3009 3009 3009 3010 3010 3010 3011 3011 3011 3012 3012 3012 3013 3013 3013 3014 3014 3015 3016 3017 3017 3018 3019 3019 3020 3020
3012 3012 3012 3013 3013 3012 3013 3014 3013 3014 3014 3014 3015 3015 3015 3016 3017 3018 3017 3014 3015 3015 3013 3012 3008 3005 3005 3005 3004 3003 3002 3002 3002 3002 3003 3003 3002 3002 3002 3002 3003 3003 3003 3003 3003 3003 3003 3003 3004 3004 3004 3004 3004 3004 3004 3005 3005 3005 3005 3005 3006 3006 3006 3007 3007 3007 3008 3008 3008 3008 3009 3009 3009 3010 3010 3011 3011 3012 3012 3013 3014 3015 3015 3016 3016 3017
3011 3011 3011 3012 3012 3012 3013 3013 3012 3012 3012 3012 3013 3013 3014 3015 3017 3018 3017 3014 3014 3014 3013 3014 3011 3005 3003 3004 3003 3003 3003 3001 3001 3002 3002 3001 3001 3001 3001 3001 3001 3001 3001 3001 3002 3002 3002 3002 3002 3002 3002 3002 3002 3002 3002 3002 3002 3002 3002 3003 3003 3003 3003 3003 3004 3004 3004 3004 3005 3005 3005 3006 3006 3006 3007 3007 3008 3008 3009 3009 3010 3011 3011 3012 3013 3013
3010 3010 3011 3011 3011 3011 3012 3012 3011 3011 3011 3011 3012 3012 3013 3014 3016 3016 3016 3015 3015 3012 3012 3014 3010 3003 3002 3003 3003 3003 3003 3002 3001 3001 3000 3000 3000 3000 3000 3000 3000 3000 3000 3000 3000 3000 3000 3000 3000 3000 3000 3000 3000 3000 3000 3000 3000 3000 3000 3000 3000 3000 3000 3000 3000 3000 3000 3001 3001 3001 3001 3002 3002 3003 3003 3003 3004 3004 3005 3005 3006 3007 3007 3008 3009 3009
3009 3009 3009 3010 3011 3011 3011 3011 3010 3010 3010 3011 3011 3012 3012 3013 3015 3015 3015 3016 3014 3010 3011 3013 3007 3001 3001 3003 3002 3002 3001 3000 2999 2999 2999 2999 2999 2999 2999 2999 2999 2999 2998 2998 2998 2997 2997 2997 2997 2997 2997 2997 2997 2997 2997 2997 2997 2997 2997 2997 2997 2997 2997 2997 2997 2997 2997 2997 2997 2997 2997 2998 2998 2998 2999 2999 3000 3000 3001 3001 3002 3002 3003 3004 3004 3005
3007 3008 3008 3009 3009 3008 3008 3009 3010 3010 3010 3011 3011 3011 3011 3012 3013 3013 3014 3015 3013 3008 3008 3007 3003 3001 3001 3001 3001 3000 2999 2998 2997 2997 2997 2997 2997 2997 2997 2997 2997 2996 2996 2996 2995 2995 2995 2994 2994 2994 2994 2994 2994 2993 2993 2993 2993 2993 2993 2993 2993 2993 2993 2993 2993 2993 2993 2993 2993 2993 2993 2993 2994 2994 2994 2995 2995 2996 2996 2997 2997 2998 2998 2999 3000 3001
3006 3006 3007 3007 3007 3007 3007 3008 3009 3008 3009 3009 3009 3009 3010 3010 3010 3011 3011 3011 3010 3007 3004 3002 3002 3001 3000 2999 2999 2998 2997 2997 2995 2995 2996 2995 2995 2995 2996 2995 2995 2995 2994 2994 2993 2993 2992 2992 2991 2991 2991 2991 2990 2990 2990 2990 2990 2989 2989 2989 2989 2989 2989 2990 2989 2989 2989 2990 2990 2990 2990 2990 2990 2990 2990 2990 2991 2991 2992 2992 2993 2993 2994 2994 2995 2996
3005 3006 3006 3006 3007 3007 3007 3007 3007 3007 3007 3007 3007 3007 3008 3008 3008 3008 3008 3008 3008 3006 3000 2998 3001 3000 2998 2998 2998 2997 2996 2995 2994 2993 2993 2993 2993 2992 2993 2993 2993 2992 2992 2991 2991 2990 2990 2989 2989 2988 2988 2987 2987 2986 2986 2986 2986 2986 2986 2986 2985 2985 2985 2985 2985 2985 2985 2985 2985 2985 2985 2985 2986 2986 2986 2986 2986 2986 2987 2987 2988 2988 2989 2990 2990 2991
3004 3005 3005 3005 3006 3006 3006 3006 3006 3006 3005 3005 3005 3005 3005 3006 3005 3005 3005 3005 3006 3003 2997 2996 2998 2996 2995 2998 2997 2995 2995 2993 2992 2991 2989 2988 2988 2989 2989 2990 2989 2989 2988 2987 2987 2987 2986 2985 2985 2984 2984 2983 2983 2982 2982 2982 2982 2982 2981 2981 2981 2981 2980 2980 2980 2980 2980 2980 2980 2981 2981 2981 2981 2981 2981 2981 2981 2982 2982 2982 2983 2983 2984 2985 2985 2986
3004 3004 3004 3004 3004 3004 3005 3005 3004 3004 3003 3002 3002 3002 3002 3002 3002 3002 3001 3002 3002 2998 2995 2995 2994 2991 2993 2995 2993 2992 2991 2990 2990 2990 2987 2985 2984 2985 2986 2986 2985 2985 2984 2984 2983 2982 2982 2981 2980 2980 2979 2978 2978 2977 2977 2977 2977 2976 2976 2976 2976 2976 2975 2975 2975 2975 2975 2975 2975 2975 2975 2976 2976 2976 2976 2976 2976 2977 2977 2977 2977 2978 2978 2979 2980 2981
3003 3003 3003 3003 3003 3003 3003 3003 3003 3002 3001 2999 2998 2999 2999 2999 2999 2999 2998 2998 2997 2994 2994 2994 2990 2988 2990 2991 2989 2988 2987 2987 2988 2988 2986 2983 2981 2982 2983 2982 2981 2981 2980 2980 2979 2978 2977 2977 2976 2975 2974 2974 2973 2972 2972 2971 2971 2971 2971 2971 2970 2970 2970 2970 2970 2970 2969 2969 2969 2969 2970 2970 2970 2970 2970 2971 2971 2971 2971 2972 2972 2972 2973 2973 2974 2975
3002 3002 3002 3002 3001 3001 3001 3001 3001 3000 2998 2996 2995 2995 2996 2996 2995 2995 2995 2995 2994 2992 2992 2991 2987 2987 2988 2988 2986 2985 2984 2984 2985 2984 2983 2981 2979 2978 2979 2979 2978 2977 2976 2976 2975 2974 2973 2972 2972 2971 2970 2969 2968 2967 2967 2966 2966 2966 2965 2965 2964 2964 2964 2963 2963 2964 2963 2963 2963 2963 2963 2963 2964 2964 2964 2965 2965 2965 2965 2966 2966 2966 2967 2967 2968 2969
3001 3001 3001 3001 3000 3000 2999 2999 2999 2997 2995 2993 2992 2992 2993 2993 2993 2992 2992 2992 2991 2990 2989 2987 2985 2986 2987 2985 2983 2982 2981 2981 2981 2980 2980 2979 2976 2975 2975 2975 2974 2973 2972 2971 2970 2969 2969 2968 2967 2967 2966 2965 2964 2963 2962 2962 2961 2961 2960 2959 2959 2958 2958 2957 2957 2957 2957 2957 2957 2956 2956 2956 2957 2957 2957 2958 2958 2958 2959 2959 2960 2960 2960 2961 2961 2962
3000 3000 3000 3000 3000 2999 2998 2998 2997 2995 2992 2990 2990 2990 2990 2990 2990 2989 2989 2988 2988 2988 2986 2984 2983 2984 2984 2982 2980 2979 2978 2978 2977 2977 2977 2976 2974 2972 2971 2971 2970 2969 2968 2967 2966 2966 2965 2964 2963 2962 2961 2961 2960 2959 2958 2957 2957 2956 2955 2954 2953 2953 2952 2952 2951 2951 2950 2950 2950 2949 2949 2949 2949 2950 2950 2950 2950 2951 2951 2952 2952 2953 2953 2954 2955 2956
2999 2999 2999 2999 2999 2998 2997 2997 2995 2991 2989 2989 2988 2988 2988 2988 2988 2987 2986 2986 2986 2984 2983 2981 2981 2981 2980 2979 2977 2976 2975 2975 2974 2973 2973 2972 2971 2969 2967 2967 2967 2966 2964 2963 2963 2962 2961 2960 2959 2958 2957 2956 2955 2955 2954 2953 2952 2952 2951 2950 2949 2948 2947 2947 2946 2945 2945 2944 2944 2943 2943 2942 2942 2942 2942 2942 2942 2943 2943 2943 2944 2944 2945 2946 2947 2948
2998 2998 2998 2998 2997 2997 2997 2997 2993 2988 2987 2987 2987 2986 2986 2985 2985 2983 2981 2981 2982 2981 2979 2978 2978 2978 2977 2976 2974 2972 2972 2971 2970 2970 2969 2968 2967 2966 2964 2963 2963 2962 2961 2960 2959 2958 2957 2957 2956 2955 2954 2952 2951 2950 2950 2949 2948 2947 2947 2946 2944 2944 2943 2942 2941 2941 2940 2939 2938 2938 2937 2936 2936 2936 2935 2935 2935 2935 2935 2935 2935 2936 2936 2937 2938 2939
2997 2997 2996 2996 2996 2996 2996 2995 2991 2987 2985 2984 2984 2984 2984 2983 2983 2981 2978 2976 2978 2978 2976 2975 2974 2974 2974 2971 2970 2970 2968 2967 2966 2966 2965 2965 2964 2963 2961 2960 2960 2959 2958 2957 2956 2955 2954 2953 2952 2951 2950 2949 2947 2946 2946 2945 2944 2943 2942 2941 2940 2939 2938 2937 2937 2936 2935 2934 2933 2933 2932 2931 2930 2930 2929 2929 2929 2928 2928 2927 2927 2927 2927 2928 2929 2930
2995 2995 2995 2996 2995 2995 2994 2994 2991 2987 2983 2980 2981 2982 2982 2981 2981 2980 2975 2971 2972 2973 2973 2972 2971 2971 2970 2968 2967 2967 2965 2963 2963 2962 2962 2961 2960 2960 2959 2958 2957 2956 2955 2954 2953 2952 2950 2949 2948 2947 2946 2944 2943 2942 2941 2940 2939 2939 2938 2936 2935 2934 2933 2933 2932 2931 2930 2929 2928 2927 2926 2925 2925 2924 2924 2923 2922 2922 2921 2921 2920 2920 2919 2919 2919 2920
2994 2994 2994 2994 2994 2993 2993 2994 2992 2987 2981 2979 2978 2979 2979 2978 2978 2978 2973 2968 2967 2968 2969 2968 2969 2968 2967 2966 2965 2964 2962 2960 2960 2960 2959 2958 2957 2956 2956 2955 2953 2952 2951 2949 2948 2947 2946 2945 2944 2942 2941 2939 2938 2937 2936 2935 2934 2934 2933 2932 2931 2930 2929 2928 2927 2926 2925 2924 2923 2921 2920 2920 2919 2918 2917 2917 2916 2915 2915 2914 2913 2913 2912 2911 2910 2911
2993 2992 2992 2992 2991 2991 2992 2991 2989 2984 2980 2978 2977 2977 2977 2976 2976 2976 2972 2966 2964 2965 2965 2965 2965 2964 2964 2963 2962 2961 2960 2958 2957 2957 2956 2954 2953 2953 2952 2950 2949 2948 2946 2945 2943 2942 2941 2940 2939 2938 2936 2934 2933 2932 2931 2930 2929 2929 2928 2927 2926 2925 2924 2923 2922 2921 2920 2918 2917 2916 2915 2914 2913 2912 2911 2910 2910 2909 2908 2907 2907 2906 2905 2904 2903 2902
2991 2991 2990 2989 2989 2989 2990 2988 2984 2980 2978 2977 2976 2975 2975 2975 2974 2973 2970 2965 2964 2963 2962 2962 2962 2961 2960 2959 2958 2957 2956 2955 2954 2953 2951 2950 2949 2948 2947 2945 2944 2943 2941 2940 2938 2937 2936 2935 2934 2933 2931 2929 2928 2927 2926 2925 2924 2923 2923 2922 2921 2920 2919 2918 2917 2916 2914 2913 2912 2911 2910 2908 2907 2906 2905 2904 2903 2903 2902 2901 2899 2899 2898 2897 2896 2895
2989 2988 2987 2987 2987 2986 2986 2986 2982 2977 2974 2975 2974 2973 2973 2972 2970 2968 2965 2963 2962 2961 2959 2958 2958 2957 2956 2955 2954 2952 2951 2951 2950 2948 2947 2945 2944 2943 2941 2940 2939 2938 2936 2934 2933 2931 2930 2929 2928 2927 2926 2924 2923 2921 2920 2920 2919 2918 2918 2916 2915 2915 2914 2913 2912 2910 2909 2908 2907 2906 2905 2903 2902 2901 2900 2898 2897 2896 2895 2894 2893 2891 2890 2889 2888 2888
2986 2986 2984 2984 2984 2984 2984 2983 2980 2975 2972 2972 2972 2970 2970 2969 2966 2963 2962 2961 2959 2958 2957 2955 2954 2952 2951 2950 2950 2948 2947 2946 2945 2943 2942 2941 2939 2938 2936 2935 2934 2932 2930 2929 2927 2926 2925 2924 2923 2922 2920 2919 2917 2916 2915 2914 2914 2913 2912 2911 2910 2910 2909 2908 2907 2906 2905 2903 2902 2901 2900 2898 2897 2896 2894 2893 2891 2890 2889 2888 2886 2885 2883 2881 2880 2880
2983 2983 2981 2980 2981 2981 2980 2977 2974 2971 2969 2969 2969 2967 2965 2964 2962 2960 2959 2957 2955 2954 2953 2951 2950 2949 2947 2945 2944 2943 2942 2941 2940 2938 2937 2936 2934 2933 2931 2930 2928 2927 2925 2923 2922 2920 2919 2918 2917 2916 2915 2913 2912 2911 2910 2909 2909 2908 2907 2906 2905 2905 2904 2903 2902 2901 2900 2899 2897 2896 2895 2893 2892 2890 2889 2887 2885 2884 2882 2881 2879 2878 2876 2874 2873 2872
2980 2980 2979 2978 2977 2976 2974 2971 2970 2968 2967 2966 2964 2963 2961 2959 2958 2956 2954 2952 2951 2950 2948 2946 2946 2945 2944 2942 2940 2938 2937 2936 2935 2933 2932 2931 2929 2928 2926 2924 2923 2921 2920 2918 2916 2915 2914 2912 2911 2910 2909 2908 2906 2906 2905 2905 2904 2903 2902 2901 2901 2900 2900 2899 2897 2896 2895 2894 2892 2891 2890 2889 2887 2885 2883 2881 2879 2878 2876 2874 2873 2871 2870 2868 2866 2865
2978 2977 2976 2975 2974 2972 2970 2968 2968 2966 2965 2963 2961 2959 2958 2956 2955 2953 2950 2948 2947 2946 2944 2942 2941 2940 2939 2938 2936 2935 2933 2932 2930 2928 2927 2926 2924 2923 2921 2920 2918 2916 2915 2913 2911 2910 2908 2907 2906 2905 2904 2903 2901 2901 2901 2900 2899 2898 2898 2897 2897 2896 2895 2894 2893 2892 2891 2889 2888 2886 2885 2884 2882 2880 2878 2876 2874 2872 2870 2868 2866 2865 2863 2862 2860 2858
2975 2975 2973 2971 2971 2969 2966 2966 2966 2964 2962 2960 2958 2957 2955 2953 2951 2949 2947 2945 2943 2942 2940 2939 2937 2936 2934 2933 2932 2930 2929 2927 2926 2924 2923 2921 2920 2919 2917 2916 2914 2912 2910 2908 2907 2905 2903 2902 2901 2900 2899 2898 2897 2897 2897 2896 2895 2894 2894 2894 2893 2892 2891 2890 2889 2887 2886 2885 2883 2882 2880 2879 2877 2875 2873 2871 2869 2866 2864 2862 2860 2858 2857 2855 2853 2852
2972 2971 2969 2968 2967 2965 2963 2963 2963 2961 2959 2958 2956 2954 2952 2950 2948 2946 2944 2941 2940 2938 2936 2935 2933 2932 2930 2929 2927 2926 2925 2923 2922 2920 2919 2918 2916 2915 2913 2912 2910 2909 2906 2904 2903 2901 2899 2898 2897 2896 2895 2895 2894 2893 2893 2892 2891 2891 2890 2890 2889 2888 2887 2885 2884 2883 2882 2881 2879 2878 2876 2874 2872 2871 2868 2866 2864 2861 2858 2856 2854 2852 2850 2848 2846 2845
2968 2967 2966 2964 2963 2961 2960 2960 2959 2956 2955 2954 2952 2951 2949 2946 2944 2942 2940 2938 2936 2934 2932 2931 2929 2928 2926 2925 2923 2922 2920 2919 2918 2916 2915 2914 2913 2911 2910 2908 2907 2905 2903 2901 2899 2898 2896 2895 2894 2893 2892 2891 2891 2890 2890 2888 2888 2887 2887 2886 2885 2884 2883 2881 2880 2879 2878 2876 2875 2873 2872 2870 2868 2865 2863 2861 2859 2856 2853 2850 2848 2845 2844 2842 2840 2838
2964 2963 2963 2961 2958 2957 2957 2957 2955 2952 2951 2950 2948 2946 2945 2943 2940 2938 2936 2934 2932 2930 2928 2927 2925 2924 2922 2920 2919 2917 2916 2915 2914 2912 2911 2910 2909 2908 2906 2905 2904 2902 2900 2898 2896 2895 2893 2892 2891 2890 2889 2889 2888 2887 2886 2885 2884 2883 2883 2882 2881 2880 2879 2878 2877 2876 2874 2872 2871 2869 2867 2865 2863 2861 2858 2856 2853 2851 2849 2846 2843 2840 2838 2836 2835 2833
2961 2960 2959 2957 2955 2954 2953 2953 2951 2949 2947 2946 2945 2942 2940 2939 2936 2934 2933 2931 2929 2927 2925 2923 2921 2920 2918 2916 2915 2913 2912 2911 2910 2909 2908 2907 2905 2904 2903 2902 2900 2899 2897 2895 2893 2892 2890 2889 2888 2887 2886 2886 2885 2884 2883 2882 2881 2880 2879 2878 2877 2876 2875 2874 2873 2872 2870 2868 2867 2865 2863 2861 2859 2856 2854 2851 2848 2846 2843 2841 2840 2837 2834 2831 2829 2828